Location: Beaurecueil
(43.5122°N, 5.5450°E)
Time: 17:07:35
(UTC+00:00)

Abrixas rocket - Pass Details

Date: 18 September 2020
Orbit: 329 x 337 km, 48.4° (Epoch: 20 October)

Event Time Altitude Azimuth Distance (km) Brightness Sun altitude
Rises 19:34:01 0° 283° (WNW) 2,095 7.3 -20.6°
Reaches altitude 10° 19:36:10 10° 296° (WNW) 1,258 5.9 -20.9°
Enters shadow 19:38:17 27° 343° (NNW) 685 3.7 -21.3°
